Time,TemperatureF,DewpointF,PressureIn,WindDirection,WindDirectionDegrees,WindSpeedMPH,WindSpeedGustMPH,Humidity,HourlyPrecipIn,Conditions,Clouds,dailyrainin,SoftwareType,DateUTC
2013-02-16 00:15:00,34.0,19.5,29.84,NNW,335,2.0,12.0,55,0.00,,---,0.00,VWS V12.07,2013-02-16 05:15:00,
2013-02-16 00:25:00,33.8,19.4,29.84,NNE,20,2.0,12.0,55,0.00,,---,0.00,VWS V12.07,2013-02-16 05:25:00,
2013-02-16 00:35:00,33.5,19.5,29.85,North,6,4.0,6.0,56,0.00,,---,0.00,VWS V12.07,2013-02-16 05:35:00,
2013-02-16 00:45:00,33.5,20.3,29.85,North,355,4.0,7.0,58,0.00,,---,0.00,VWS V12.07,2013-02-16 05:45:00,
2013-02-16 00:55:00,33.2,20.4,29.85,North,2,6.0,16.0,59,0.00,,---,0.00,VWS V12.07,2013-02-16 05:55:00,
2013-02-16 01:05:00,33.1,19.9,29.85,NNW,328,0.0,4.0,58,0.00,,---,0.00,VWS V12.07,2013-02-16 06:05:00,
2013-02-16 01:15:00,32.7,21.9,29.85,North,8,0.0,12.0,64,0.00,,---,0.00,VWS V12.07,2013-02-16 06:15:00,
2013-02-16 01:25:00,31.9,22.9,29.86,NNW,347,4.0,12.0,69,0.00,,---,0.00,VWS V12.07,2013-02-16 06:25:00,
2013-02-16 01:35:00,31.2,23.6,29.85,NW,319,0.0,5.0,73,0.00,,---,0.00,VWS V12.07,2013-02-16 06:35:00,
2013-02-16 01:45:00,30.6,24.3,29.85,NNW,336,2.0,13.0,77,0.00,,---,0.00,VWS V12.07,2013-02-16 06:45:00,
2013-02-16 01:55:00,30.1,24.7,29.87,North,360,3.0,13.0,80,0.00,,---,0.00,VWS V12.07,2013-02-16 06:55:00,
2013-02-16 02:05:00,29.5,25.3,29.85,North,7,4.0,6.0,84,0.00,,---,0.00,VWS V12.07,2013-02-16 07:05:00,
2013-02-16 02:15:00,29.3,25.6,29.84,North,6,1.0,9.0,86,0.00,,---,0.00,VWS V12.07,2013-02-16 07:15:00,
2013-02-16 02:25:00,29.1,25.7,29.84,North,358,2.0,9.0,87,0.00,,---,0.00,VWS V12.07,2013-02-16 07:25:00,
2013-02-16 02:33:00,29.0,25.9,29.85,North,8,2.0,6.0,88,0.00,,---,0.00,VWS V12.07,2013-02-16 07:33:00,
2013-02-16 02:45:00,28.8,26.0,29.85,NNE,28,5.0,6.0,89,0.00,,---,0.00,VWS V12.07,2013-02-16 07:45:00,
2013-02-16 02:55:00,28.7,26.1,29.84,NNE,15,3.0,6.0,90,0.00,,---,0.00,VWS V12.07,2013-02-16 07:55:00,
2013-02-16 03:05:00,28.5,26.0,29.84,NNE,14,2.0,3.0,90,0.00,,---,0.00,VWS V12.07,2013-02-16 08:05:00,
2013-02-16 03:15:00,28.4,26.1,29.84,NNE,15,0.0,3.0,91,0.00,,---,0.00,VWS V12.07,2013-02-16 08:15:00,
2013-02-16 03:25:00,28.4,26.1,29.84,NNE,14,0.0,3.0,91,0.00,,---,0.00,VWS V12.07,2013-02-16 08:25:00,
2013-02-16 03:35:00,28.4,26.1,29.84,NNE,15,0.0,0.0,91,0.00,,---,0.00,VWS V12.07,2013-02-16 08:35:00,
2013-02-16 03:45:00,28.5,26.2,29.84,NNE,15,0.0,2.0,91,0.00,,---,0.00,VWS V12.07,2013-02-16 08:45:00,
2013-02-16 03:55:00,28.5,26.0,29.83,NNE,14,0.0,2.0,90,0.00,,---,0.00,VWS V12.07,2013-02-16 08:55:00,
2013-02-16 04:05:00,28.5,26.0,29.83,NNE,14,0.0,1.0,90,0.00,,---,0.00,VWS V12.07,2013-02-16 09:05:00,
2013-02-16 04:15:00,28.4,25.9,29.83,NNE,14,0.0,2.0,90,0.00,,---,0.00,VWS V12.07,2013-02-16 09:15:00,
2013-02-16 04:25:00,28.4,25.9,29.83,NNE,14,0.0,2.0,90,0.00,,---,0.00,VWS V12.07,2013-02-16 09:25:00,
2013-02-16 04:35:00,28.4,26.1,29.83,NNE,15,0.0,2.0,91,0.00,,---,0.00,VWS V12.07,2013-02-16 09:35:00,
2013-02-16 04:45:00,28.2,25.9,29.83,NNE,15,0.0,2.0,91,0.00,,---,0.00,VWS V12.07,2013-02-16 09:45:00,
2013-02-16 04:55:00,28.2,25.9,29.84,NNE,14,0.0,2.0,91,0.00,,---,0.00,VWS V12.07,2013-02-16 09:55:00,
2013-02-16 05:05:00,28.4,25.9,29.83,NNE,14,0.0,0.0,90,0.00,,---,0.00,VWS V12.07,2013-02-16 10:05:00,
2013-02-16 05:15:00,28.4,25.6,29.83,North,5,0.0,4.0,89,0.00,,---,0.00,VWS V12.07,2013-02-16 10:15:00,
2013-02-16 05:25:00,28.4,25.3,29.84,North,355,1.0,4.0,88,0.00,,---,0.00,VWS V12.07,2013-02-16 10:25:00,
2013-02-16 05:35:00,28.2,24.8,29.84,North,353,0.0,4.0,87,0.00,,---,0.00,VWS V12.07,2013-02-16 10:35:00,
2013-02-16 05:45:00,28.2,24.8,29.84,North,350,2.0,4.0,87,0.00,,---,0.00,VWS V12.07,2013-02-16 10:45:00,
2013-02-16 05:55:00,28.1,24.7,29.83,North,350,2.0,4.0,87,0.00,,---,0.00,VWS V12.07,2013-02-16 10:55:00,
2013-02-16 06:05:00,27.8,25.0,29.83,NNE,12,2.0,4.0,89,0.00,,---,0.00,VWS V12.07,2013-02-16 11:05:00,
2013-02-16 06:16:00,27.3,24.8,29.83,NNE,14,2.0,5.0,90,0.00,,---,0.00,VWS V12.07,2013-02-16 11:16:00,
2013-02-16 06:26:00,27.3,25.0,29.83,NNE,14,4.0,5.0,91,0.00,,---,0.00,VWS V12.07,2013-02-16 11:26:00,
2013-02-16 06:36:00,27.3,25.3,29.83,NNE,31,4.0,6.0,92,0.00,,---,0.00,VWS V12.07,2013-02-16 11:36:00,
2013-02-16 06:47:00,27.2,25.5,29.83,NNE,25,4.0,6.0,93,0.00,,---,0.00,VWS V12.07,2013-02-16 11:47:00,
2013-02-16 06:56:00,27.0,25.2,29.83,North,8,3.0,6.0,93,0.00,,---,0.00,VWS V12.07,2013-02-16 11:56:00,
2013-02-16 07:15:00,27.3,25.0,29.84,NNE,14,2.0,9.0,91,0.00,,---,0.00,VWS V12.07,2013-02-16 12:15:00,
2013-02-16 07:25:00,27.6,24.5,29.84,North,352,0.0,9.0,88,0.00,,---,0.00,VWS V12.07,2013-02-16 12:25:00,
2013-02-16 07:35:00,27.8,23.3,29.85,North,357,2.0,9.0,83,0.00,,---,0.00,VWS V12.07,2013-02-16 12:35:00,
2013-02-16 07:45:00,28.1,22.7,29.85,North,4,1.0,9.0,80,0.00,,---,0.00,VWS V12.07,2013-02-16 12:45:00,
2013-02-16 07:55:00,28.2,22.8,29.85,NNE,14,4.0,9.0,80,0.00,,---,0.00,VWS V12.07,2013-02-16 12:55:00,
2013-02-16 08:05:00,28.4,22.7,29.86,North,8,0.0,6.0,79,0.00,,---,0.00,VWS V12.07,2013-02-16 13:05:00,
2013-02-16 08:15:00,28.5,22.5,29.85,North,8,3.0,6.0,78,0.00,,---,0.00,VWS V12.07,2013-02-16 13:15:00,
2013-02-16 08:25:00,28.7,23.0,29.85,North,4,1.0,6.0,79,0.00,,---,0.00,VWS V12.07,2013-02-16 13:25:00,
2013-02-16 08:35:00,29.1,22.5,29.85,North,4,0.0,3.0,76,0.00,,---,0.00,VWS V12.07,2013-02-16 13:35:00,
2013-02-16 08:45:00,29.3,22.4,29.85,NNE,25,0.0,6.0,75,0.00,,---,0.00,VWS V12.07,2013-02-16 13:45:00,
2013-02-16 08:53:00,29.5,22.6,29.85,NNE,24,2.0,7.0,75,0.00,,---,0.00,VWS V12.07,2013-02-16 13:53:00,
2013-02-16 09:05:00,30.3,23.0,29.84,North,4,2.0,6.0,74,0.00,,---,0.00,VWS V12.07,2013-02-16 14:05:00,
2013-02-16 09:15:00,30.4,21.5,29.84,NW,317,2.0,10.0,69,0.00,,---,0.00,VWS V12.07,2013-02-16 14:15:00,
2013-02-16 09:25:00,30.9,21.2,29.84,NW,316,3.0,10.0,67,0.00,,---,0.00,VWS V12.07,2013-02-16 14:25:00,
2013-02-16 09:46:00,31.5,21.8,29.83,NNW,328,3.0,12.0,67,0.00,,---,0.00,VWS V12.07,2013-02-16 14:46:00,
2013-02-16 09:56:00,31.8,22.1,29.83,NNW,330,11.0,12.0,67,0.00,,---,0.00,VWS V12.07,2013-02-16 14:56:00,
2013-02-16 10:06:00,32.1,19.8,29.83,WNW,293,5.0,13.0,60,0.00,,---,0.00,VWS V12.07,2013-02-16 15:06:00,
2013-02-16 10:16:00,31.8,19.5,29.82,NNW,338,3.0,14.0,60,0.00,,---,0.00,VWS V12.07,2013-02-16 15:16:00,
2013-02-16 10:26:00,31.6,19.7,29.82,North,8,7.0,14.0,61,0.00,,---,0.00,VWS V12.07,2013-02-16 15:26:00,
2013-02-16 10:36:00,31.2,19.3,29.82,North,4,2.0,13.0,61,0.00,,---,0.00,VWS V12.07,2013-02-16 15:36:00,
2013-02-16 10:46:00,31.5,18.8,29.83,North,4,7.0,13.0,59,0.00,,---,0.00,VWS V12.07,2013-02-16 15:46:00,
2013-02-16 10:56:00,31.2,19.0,29.83,North,360,12.0,13.0,60,0.00,,---,0.00,VWS V12.07,2013-02-16 15:56:00,
2013-02-16 11:06:00,31.6,18.5,29.82,NNW,327,5.0,12.0,58,0.00,,---,0.00,VWS V12.07,2013-02-16 16:06:00,
2013-02-16 11:16:00,32.8,19.7,29.82,WNW,283,4.0,12.0,58,0.00,,---,0.00,VWS V12.07,2013-02-16 16:16:00,
2013-02-16 11:26:00,33.5,19.9,29.82,NNE,23,1.0,12.0,57,0.00,,---,0.00,VWS V12.07,2013-02-16 16:26:00,
2013-02-16 11:37:00,34.0,19.5,29.81,NNW,333,8.0,18.0,55,0.00,,---,0.00,VWS V12.07,2013-02-16 16:37:00,
2013-02-16 11:47:00,34.0,19.5,29.80,NW,321,1.0,18.0,55,0.00,,---,0.00,VWS V12.07,2013-02-16 16:47:00,
2013-02-16 11:55:00,34.4,17.2,29.80,WNW,288,5.0,18.0,49,0.00,,---,0.00,VWS V12.07,2013-02-16 16:55:00,
2013-02-16 12:05:00,34.4,17.2,29.79,WNW,286,3.0,9.0,49,0.00,,---,0.00,VWS V12.07,2013-02-16 17:05:00,
2013-02-16 12:15:00,33.8,16.7,29.79,WNW,302,5.0,11.0,49,0.00,,---,0.00,VWS V12.07,2013-02-16 17:15:00,
2013-02-16 12:25:00,33.5,16.9,29.79,North,2,6.0,12.0,50,0.00,,---,0.00,VWS V12.07,2013-02-16 17:25:00,
2013-02-16 12:35:00,33.2,17.0,29.79,NW,305,6.0,10.0,51,0.00,,---,0.00,VWS V12.07,2013-02-16 17:35:00,
2013-02-16 12:45:00,34.3,18.1,29.79,WNW,303,8.0,10.0,51,0.00,,---,0.00,VWS V12.07,2013-02-16 17:45:00,
2013-02-16 12:55:00,34.6,18.3,29.79,North,8,7.0,12.0,51,0.00,,---,0.00,VWS V12.07,2013-02-16 17:55:00,
2013-02-16 13:05:00,34.9,17.7,29.78,NW,319,5.0,10.0,49,0.00,,---,0.00,VWS V12.07,2013-02-16 18:05:00,
2013-02-16 13:15:00,35.2,18.9,29.78,NNE,24,5.0,17.0,51,0.00,,---,0.00,VWS V12.07,2013-02-16 18:15:00,
2013-02-16 13:25:00,35.0,18.7,29.78,North,358,3.0,17.0,51,0.00,,---,0.00,VWS V12.07,2013-02-16 18:25:00,
2013-02-16 13:36:00,34.6,17.4,29.78,NNW,330,6.0,11.0,49,0.00,,---,0.00,VWS V12.07,2013-02-16 18:36:00,
2013-02-16 13:45:00,33.7,17.5,29.78,North,353,7.0,17.0,51,0.00,,---,0.00,VWS V12.07,2013-02-16 18:45:00,
2013-02-16 13:55:00,33.5,17.3,29.78,North,2,2.0,17.0,51,0.00,,---,0.00,VWS V12.07,2013-02-16 18:55:00,
2013-02-16 14:05:00,34.3,18.1,29.78,North,354,6.0,12.0,51,0.00,,---,0.00,VWS V12.07,2013-02-16 19:05:00,
2013-02-16 14:16:00,33.5,16.9,29.78,North,360,9.0,17.0,50,0.00,,---,0.00,VWS V12.07,2013-02-16 19:16:00,
2013-02-16 14:25:00,32.9,16.8,29.78,North,4,5.0,17.0,51,0.00,,---,0.00,VWS V12.07,2013-02-16 19:25:00,
2013-02-16 14:36:00,33.5,16.4,29.78,NNW,328,4.0,12.0,49,0.00,,---,0.00,VWS V12.07,2013-02-16 19:36:00,
2013-02-16 14:45:00,33.7,17.0,29.78,North,358,4.0,12.0,50,0.00,,---,0.00,VWS V12.07,2013-02-16 19:45:00,
2013-02-16 14:55:00,33.4,16.3,29.78,NNE,15,10.0,18.0,49,0.00,,---,0.00,VWS V12.07,2013-02-16 19:55:00,
2013-02-16 15:05:00,32.8,15.3,29.78,North,360,10.0,17.0,48,0.00,,---,0.00,VWS V12.07,2013-02-16 20:05:00,
2013-02-16 15:16:00,32.8,15.3,29.78,North,6,5.0,17.0,48,0.00,,---,0.00,VWS V12.07,2013-02-16 20:16:00,
2013-02-16 15:25:00,33.7,15.6,29.78,NNE,13,0.0,17.0,47,0.00,,---,0.00,VWS V12.07,2013-02-16 20:25:00,
2013-02-16 15:38:00,31.9,14.9,29.77,NNE,19,14.0,19.0,49,0.00,,---,0.00,VWS V12.07,2013-02-16 20:38:00,
2013-02-16 16:07:00,30.3,13.4,29.77,NNE,23,13.0,19.0,49,0.00,,---,0.00,VWS V12.07,2013-02-16 21:07:00,
2013-02-16 16:16:00,29.8,13.0,29.76,NE,43,6.0,19.0,49,0.00,,---,0.00,VWS V12.07,2013-02-16 21:16:00,
2013-02-16 16:25:00,29.5,12.7,29.76,NNE,19,11.0,19.0,49,0.00,,---,0.00,VWS V12.07,2013-02-16 21:25:00,
2013-02-16 16:35:00,29.4,12.6,29.75,NE,34,8.0,15.0,49,0.00,,---,0.00,VWS V12.07,2013-02-16 21:35:00,
2013-02-16 16:45:00,29.3,13.0,29.76,NNE,26,4.0,15.0,50,0.00,,---,0.00,VWS V12.07,2013-02-16 21:45:00,
2013-02-16 16:55:00,29.3,13.0,29.76,NNW,337,4.0,15.0,50,0.00,,---,0.00,VWS V12.07,2013-02-16 21:55:00,
2013-02-16 17:05:00,29.3,13.0,29.77,NNE,13,6.0,11.0,50,0.00,,---,0.00,VWS V12.07,2013-02-16 22:05:00,
2013-02-16 17:15:00,29.1,13.2,29.77,North,353,13.0,17.0,51,0.00,,---,0.00,VWS V12.07,2013-02-16 22:15:00,
2013-02-16 17:25:00,28.8,14.7,29.77,North,8,10.0,19.0,55,0.00,,---,0.00,VWS V12.07,2013-02-16 22:25:00,
2013-02-16 17:35:00,28.5,15.2,29.78,NNE,31,6.0,16.0,57,0.00,,---,0.00,VWS V12.07,2013-02-16 22:35:00,
2013-02-16 17:45:00,28.2,15.3,29.77,NNE,12,13.0,17.0,58,0.00,,---,0.00,VWS V12.07,2013-02-16 22:45:00,
2013-02-16 17:55:00,27.9,15.1,29.77,North,9,9.0,17.0,58,0.00,,---,0.00,VWS V12.07,2013-02-16 22:55:00,
2013-02-16 18:05:00,27.8,14.2,29.77,NNE,12,14.0,18.0,56,0.00,,---,0.00,VWS V12.07,2013-02-16 23:05:00,
2013-02-16 18:15:00,27.6,14.4,29.77,NE,38,12.0,19.0,57,0.00,,---,0.00,VWS V12.07,2013-02-16 23:15:00,
2013-02-16 18:25:00,27.5,14.3,29.77,NNE,29,9.0,19.0,57,0.00,,---,0.00,VWS V12.07,2013-02-16 23:25:00,
2013-02-16 18:35:00,27.3,14.1,29.77,NNE,19,9.0,20.0,57,0.00,,---,0.00,VWS V12.07,2013-02-16 23:35:00,
2013-02-16 18:45:00,27.2,14.4,29.76,North,6,8.0,22.0,58,0.00,,---,0.00,VWS V12.07,2013-02-16 23:45:00,
2013-02-16 18:55:00,27.0,14.2,29.76,NNE,14,10.0,22.0,58,0.00,,---,0.00,VWS V12.07,2013-02-16 23:55:00,
2013-02-16 19:05:00,27.0,14.2,29.76,NNE,14,8.0,16.0,58,0.00,,---,0.00,VWS V12.07,2013-02-17 00:05:00,
2013-02-16 19:11:00,26.9,14.1,29.76,NNE,13,11.0,20.0,58,0.00,,---,0.00,VWS V12.07,2013-02-17 00:11:00,
2013-02-16 19:25:00,26.6,13.0,29.76,NNE,27,17.0,34.0,56,0.00,,---,0.00,VWS V12.07,2013-02-17 00:25:00,
2013-02-16 19:36:00,26.3,12.8,29.76,NNE,30,17.0,23.0,56,0.00,,---,0.00,VWS V12.07,2013-02-17 00:36:00,
2013-02-16 19:56:00,25.8,11.5,29.76,NE,34,23.0,25.0,54,0.00,,---,0.00,VWS V12.07,2013-02-17 00:56:00,
2013-02-16 20:25:00,25.3,9.7,29.76,NNE,14,24.0,35.0,51,0.00,,---,0.00,VWS V12.07,2013-02-17 01:25:00,
2013-02-16 20:36:00,25.0,9.0,29.75,NNE,32,19.0,27.0,50,0.00,,---,0.00,VWS V12.07,2013-02-17 01:36:00,
2013-02-16 20:47:00,24.8,8.8,29.75,NNE,27,15.0,27.0,50,0.00,,---,0.00,VWS V12.07,2013-02-17 01:47:00,
2013-02-16 20:57:00,24.7,8.3,29.75,NNE,27,16.0,31.0,49,0.00,,---,0.00,VWS V12.07,2013-02-17 01:57:00,
2013-02-16 21:06:00,24.4,7.5,29.75,NE,39,19.0,26.0,48,0.00,,---,0.00,VWS V12.07,2013-02-17 02:06:00,
2013-02-16 21:17:00,24.2,7.3,29.74,NNE,21,22.0,26.0,48,0.00,,---,0.00,VWS V12.07,2013-02-17 02:17:00,
2013-02-16 21:26:00,23.9,7.5,29.74,NNE,31,14.0,29.0,49,0.00,,---,0.00,VWS V12.07,2013-02-17 02:26:00,
2013-02-16 21:36:00,23.8,7.4,29.74,NNE,25,12.0,23.0,49,0.00,,---,0.00,VWS V12.07,2013-02-17 02:36:00,
2013-02-16 21:46:00,23.5,6.7,29.74,NNE,29,20.0,28.0,48,0.00,,---,0.00,VWS V12.07,2013-02-17 02:46:00,
2013-02-16 21:56:00,23.0,5.3,29.74,NNE,31,15.0,28.0,46,0.00,,---,0.00,VWS V12.07,2013-02-17 02:56:00,
2013-02-16 22:06:00,22.9,5.2,29.74,NE,45,17.0,29.0,46,0.00,,---,0.00,VWS V12.07,2013-02-17 03:06:00,
2013-02-16 22:17:00,22.5,4.4,29.73,NE,47,15.0,29.0,45,0.00,,---,0.00,VWS V12.07,2013-02-17 03:17:00,
2013-02-16 22:27:00,22.2,4.1,29.73,NE,43,20.0,29.0,45,0.00,,---,0.00,VWS V12.07,2013-02-17 03:27:00,
2013-02-16 22:37:00,22.1,4.5,29.73,NNE,29,17.0,25.0,46,0.00,,---,0.00,VWS V12.07,2013-02-17 03:37:00,
2013-02-16 22:46:00,21.9,3.8,29.72,NE,39,13.0,25.0,45,0.00,,---,0.00,VWS V12.07,2013-02-17 03:46:00,
2013-02-16 22:56:00,21.8,3.2,29.72,North,10,25.0,25.0,44,0.00,,---,0.00,VWS V12.07,2013-02-17 03:56:00,
2013-02-16 23:06:00,21.6,3.5,29.71,NNE,18,15.0,22.0,45,0.00,,---,0.00,VWS V12.07,2013-02-17 04:06:00,
2013-02-16 23:16:00,21.3,2.3,29.69,NNE,16,30.0,31.0,43,0.00,,---,0.00,VWS V12.07,2013-02-17 04:16:00,
2013-02-16 23:26:00,21.0,2.0,29.69,NNE,16,17.0,33.0,43,0.00,,---,0.00,VWS V12.07,2013-02-17 04:26:00,
2013-02-16 23:36:00,20.8,1.3,29.69,NNE,32,15.0,33.0,42,0.00,,---,0.00,VWS V12.07,2013-02-17 04:36:00,
2013-02-16 23:46:00,20.8,1.3,29.69,NNE,22,20.0,33.0,42,0.00,,---,0.00,VWS V12.07,2013-02-17 04:46:00,
2013-02-16 23:56:00,20.6,1.7,29.69,NNE,29,19.0,33.0,43,0.00,,---,0.00,VWS V12.07,2013-02-17 04:56:00,